[[{"header":{"parameterUnit":"m.s-1","parameterCategory":1,"la1":30.2991,"la2":30.254,"lo1":-89.0895,"lo2":-89.0444,"dy":0.0017,"dx":0.0017,"nx":28,"ny":28,"refTime":"2023-09-28T03:00:00:Z","depth":0,"parameterNumber":2,"parameterNumberName":"U-component_of_WINDS"},"data":[0,0,0,0,0,0,0,0,0,0,0,0,0,0,0,0,0,0,0,0,0,0,0,0,0,0,0,0,0,0,0,0,0,0,0,0,0,0,0,0,0,0,0,0,0,0,0,0,0,0,0,0,0,0,0,0,0,0,-5.1847,-5.1847,0,-5.183,-5.183,-5.183,-5.1668,-5.1664,-5.166,-5.1656,-5.1642,-5.1645,-5.1649,0,0,0,0,0,0,0,0,0,0,0,0,0,-5.1743,-5.1746,-5.1847,-5.1847,-5.1846,-5.183,-5.183,-5.183,-5.1669,-5.1664,-5.1659,-5.1654,-5.1641,-5.1645,-5.1649,0,0,0,0,0,0,0,0,0,0,0,0,0,-5.1764,-5.1747,-5.1847,-5.1764,-5.1756,-5.183,-5.183,-5.183,-5.167,-5.1664,-5.1658,-5.1652,-5.164,-5.1644,-5.165,-5.1802,0,0,-5.1665,-5.1667,0,0,0,0,0,0,0,0,-5.1763,-5.1768,-5.1776,-5.177,-5.1761,-5.1745,-5.1788,-5.1821,-5.1671,-5.1703,-5.1656,-5.1649,-5.1681,-5.1683,-5.1693,-5.1802,-5.1801,-5.1666,-5.1669,-5.1671,-5.1672,0,0,0,0,0,0,0,-5.1762,-5.1768,-5.184,-5.1777,-5.1768,-5.1729,-5.1725,-5.1794,-5.1726,-5.17,-5.1688,-5.1688,-5.1676,-5.1688,-5.1691,-5.1801,-5.1665,-5.167,-5.1673,-5.1675,-5.2036,-5.2042,0,0,0,0,0,0,-5.1771,-5.1768,-5.1841,-5.184,-5.1747,-5.1736,-5.1732,-5.1756,-5.1725,-5.1714,-5.1693,-5.168,-5.1683,-5.1686,-5.169,-5.1867,-5.1671,-5.1676,-5.1678,-5.203,-5.2037,-5.2044,0,0,0,0,0,0,-5.177,-5.1779,-5.1841,-5.18,-5.1805,-5.1744,-5.1773,-5.1759,-5.1771,-5.172,-5.1708,-5.1718,-5.1678,-5.1683,-5.1776,-5.1864,-5.1678,-5.1682,-5.2022,-5.2032,-5.2041,-5.2222,0,0,0,0,0,0,-5.1767,-5.178,-5.1836,-5.1803,-5.1808,-5.1926,-5.1779,-5.1763,-5.178,-5.1763,-5.174,-5.173,-5.1674,-5.1769,-5.1781,-5.1868,-5.1686,-5.2013,-5.2026,-5.2038,-5.2208,-5.2237,-5.2262,0,0,0,0,0,-5.1764,-5.1888,-5.1839,-5.1849,-5.1877,-5.1932,-5.1935,-5.1866,-5.1788,-5.1844,-5.1812,-5.1731,-5.1854,-5.178,-5.1792,-5.1882,-5.2008,-5.2023,-5.2037,-5.2196,-5.2231,-5.2261,0,0,0,0,0,0,-5.1933,-5.1882,-5.1828,-5.1944,-5.1944,-5.1904,-5.1973,-5.1906,-5.1928,-5.1911,-5.1827,-5.1823,-5.1929,-5.1915,-5.1834,-5.2029,-5.1917,-5.1934,-5.2034,-5.2067,-5.2093,-5.2093,-5.1691,0,0,0,0,0,-5.1984,-5.2031,-5.1985,-5.2092,-5.2094,-5.2035,-5.2056,-5.2004,-5.2,-5.1999,-5.1973,-5.1974,-5.2012,-5.2039,-5.2072,-5.2207,-5.22,-5.2275,-5.2302,-5.2324,-5.234,-5.2411,-5.2444,-5.2093,-5.2093,-5.2092,0,0,-5.2089,-5.2067,-5.2102,-5.2125,-5.2118,-5.2171,-5.2035,-5.2096,-5.2134,-5.2008,-5.2093,-5.2076,-5.2071,-5.2186,-5.2235,-5.2177,-5.2436,-5.2343,-5.2361,-5.2364,-5.243,-5.2463,-5.2493,-5.2103,-5.2101,-5.2099,0,0,-5.2306,-5.2295,-5.2383,-5.238,-5.2371,-5.2331,-5.2353,-5.2325,-5.2308,-5.2393,-5.2299,-5.2345,-5.2413,-5.2413,-5.2423,-5.2646,-5.2572,-5.2659,-5.2799,-5.2869,-5.2897,-5.2921,-5.3,-5.303,-5.2675,-5.2676,-5.2676,0,-5.2438,-5.2511,-5.2437,-5.2504,-5.2518,-5.2407,-5.2496,-5.2497,-5.2501,-5.2514,-5.2449,-5.2534,-5.2523,-5.2636,-5.2691,-5.2703,-5.2725,-5.266,-5.2899,-5.2922,-5.2944,-5.3018,-5.3048,-5.2686,-5.2685,-5.2684,-5.2683,0,-5.2674,-5.2727,-5.28,-5.2805,-5.2828,-5.2906,-5.2845,-5.2877,-5.2825,-5.2792,-5.2881,-5.2865,-5.2892,-5.2916,-5.2865,-5.3024,-5.2988,-5.2914,-5.2798,-5.2989,-5.3057,-5.3085,-5.2701,-5.2698,-5.2695,-5.2692,0,0,-5.2993,-5.2959,-5.2987,-5.2989,-5.2973,-5.3014,-5.3089,-5.3116,-5.3145,-5.3153,-5.3214,-5.3276,-5.3206,-5.3217,-5.3166,-5.3229,-5.3406,-5.3145,-5.3144,-5.3194,-5.3581,-5.3636,-5.367,-5.3359,-5.3364,-5.3368,-5.3581,0,-5.3202,-5.3325,-5.3262,-5.3395,-5.3443,-5.3341,-5.3406,-5.3405,-5.3379,-5.3417,-5.3388,-5.3433,-5.3338,-5.3344,-5.3402,-5.3373,-5.3483,-5.3357,-5.3415,-5.3418,-5.3417,-5.3706,-5.3764,-5.3965,-5.3607,-5.3612,-5.3615,0,-5.346,-5.3479,-5.3616,-5.3593,-5.3612,-5.3671,-5.3692,-5.373,-5.3728,-5.3704,-5.3719,-5.3654,-5.3727,-5.3616,-5.3717,-5.3633,-5.3654,-5.3644,-5.365,-5.3651,-5.3526,-5.3714,-5.4028,-5.4058,-5.3657,-5.3653,-5.365,0,-5.3679,-5.3738,-5.3828,-5.3833,-5.3809,-5.3854,-5.3846,-5.3838,-5.3859,-5.3878,-5.3891,-5.392,-5.3935,-5.3959,-5.3905,-5.3828,-5.4014,-5.3897,-5.3996,-5.3998,-5.4037,-5.4035,-5.4358,-5.4055,-5.4054,-5.4054,-5.4053,0,-5.3917,-5.4005,-5.3926,-5.3981,-5.4077,-5.4006,-5.4104,-5.4085,-5.408,-5.413,-5.4045,-5.4095,-5.4021,-5.4064,-5.4023,-5.4113,-5.4121,-5.4104,-5.4092,-5.4111,-5.4113,-5.4121,-5.4105,-5.4062,-5.406,-5.4058,-5.4057,0,-5.4175,-5.4126,-5.4217,-5.4188,-5.4183,-5.4255,-5.423,-5.4281,-5.425,-5.4316,-5.4327,-5.4279,-5.4326,-5.4274,-5.4318,-5.429,-5.4411,-5.4379,-5.4412,-5.4402,-5.4503,-5.4494,-5.4841,-5.4883,-5.4555,-5.4558,-5.4561,0,-5.4329,-5.4394,-5.4372,-5.44,-5.4398,-5.4444,-5.4465,-5.4399,-5.4425,-5.4429,-5.448,-5.452,-5.4548,-5.4628,-5.4597,-5.4631,-5.4598,-5.4718,-5.4602,-5.462,-5.4598,-5.4594,-5.4601,-5.474,-5.4744,-5.4747,-5.475,0,-5.4607,-5.458,-5.4613,-5.464,-5.4668,-5.4685,-5.4696,-5.4725,-5.4656,-5.469,-5.4737,-5.4759,-5.4804,-5.4845,-5.487,-5.4864,-5.4797,-5.4787,-5.4812,-5.483,-5.4846,-5.4838,-5.4474,-5.4779,-5.4776,-5.4774,-5.4772,-5.4771,-5.4817,-5.487,-5.4864,-5.4905,-5.4906,-5.492,-5.4966,-5.4941,-5.4979,-5.5009,-5.4969,-5.5028,-5.5027,-5.5053,-5.5055,-5.5101,-5.505,-5.5086,-5.5095,-5.5104,-5.5119,-5.4841,-5.5106,-5.5105,-5.5104,-5.5103,-5.5103,0,-5.509,-5.5081,-5.512,-5.5138,-5.5171,-5.5105,-5.5115,-5.5147,-5.5199,-5.5204,-5.5234,-5.5289,-5.5329,-5.5303,-5.5338,-5.538,-5.535,-5.5391,-5.5386,-5.5386,-5.5163,-5.5137,-5.5415,-5.5415,-5.5415,-5.5415,-5.5415,-5.5415,-5.5235,-5.5322,-5.5296,-5.5384,-5.5375,-5.5431,-5.5442,-5.5455,-5.5458,-5.5523,-5.5556,-5.5539,-5.5532,-5.5566,-5.5601,-5.5592,-5.5609,-5.5661,-5.5642,-5.5432,-5.5402,-5.5372,-5.5348,-5.5665,-5.5666,-5.5861,-5.5862,-5.5864]},{"header":{"parameterUnit":"m.s-1","parameterCategory":1,"la1":30.2991,"la2":30.254,"lo1":-89.0895,"lo2":-89.0444,"dy":0.0017,"dx":0.0017,"nx":28,"ny":28,"refTime":"2023-09-28T03:00:00:Z","depth":0,"parameterNumber":3,"parameterNumberName":"V-component_of_WINDS"},"data":[0,0,0,0,0,0,0,0,0,0,0,0,0,0,0,0,0,0,0,0,0,0,0,0,0,0,0,0,0,0,0,0,0,0,0,0,0,0,0,0,0,0,0,0,0,0,0,0,0,0,0,0,0,0,0,0,0,0,2.4592,2.4593,0,2.4628,2.4629,2.4629,2.4703,2.4704,2.4706,2.4707,2.4739,2.4738,2.4738,0,0,0,0,0,0,0,0,0,0,0,0,0,2.4583,2.4582,2.4592,2.4593,2.4593,2.4628,2.4629,2.4629,2.4703,2.4704,2.4706,2.4708,2.4739,2.4738,2.4737,0,0,0,0,0,0,0,0,0,0,0,0,0,2.4599,2.4582,2.4592,2.4634,2.4638,2.4628,2.4629,2.4629,2.4702,2.4704,2.4707,2.4709,2.4739,2.4738,2.4737,2.4688,0,0,2.4735,2.4735,0,0,0,0,0,0,0,0,2.4598,2.46,2.4627,2.4631,2.4636,2.4664,2.4637,2.4649,2.4702,2.4678,2.4707,2.471,2.4711,2.4713,2.4715,2.4689,2.4691,2.4735,2.4734,2.4734,2.4734,0,0,0,0,0,0,0,2.4597,2.4598,2.4606,2.4628,2.4633,2.465,2.4655,2.464,2.4681,2.468,2.4685,2.4689,2.4714,2.4715,2.4716,2.4691,2.4735,2.4734,2.4734,2.4733,2.4626,2.4624,0,0,0,0,0,0,2.459,2.4597,2.4605,2.4608,2.4622,2.4648,2.4654,2.4652,2.4682,2.4689,2.4687,2.4692,2.4716,2.4717,2.4717,2.466,2.4734,2.4733,2.4733,2.4628,2.4626,2.4623,0,0,0,0,0,0,2.459,2.459,2.4604,2.4604,2.4607,2.4646,2.4644,2.4652,2.4653,2.4687,2.4695,2.4681,2.4717,2.4719,2.4695,2.4662,2.4733,2.4732,2.4631,2.4628,2.4624,2.4546,0,0,0,0,0,0,2.4589,2.459,2.4572,2.4603,2.4607,2.4582,2.4642,2.4651,2.4652,2.4659,2.4683,2.4689,2.4719,2.4696,2.4694,2.4663,2.4731,2.4634,2.463,2.4625,2.4551,2.454,2.453,0,0,0,0,0,2.4589,2.4548,2.4571,2.4571,2.4586,2.458,2.4582,2.4618,2.4649,2.4631,2.4653,2.4689,2.4667,2.4693,2.4691,2.4659,2.4636,2.4631,2.4626,2.4556,2.4542,2.4531,0,0,0,0,0,0,2.451,2.4552,2.4579,2.4547,2.4559,2.4592,2.457,2.4602,2.4605,2.4611,2.4655,2.466,2.463,2.4643,2.4671,2.4613,2.4657,2.4651,2.4605,2.4592,2.4582,2.4578,2.4731,0,0,0,0,0,2.4489,2.4482,2.4519,2.4487,2.4493,2.453,2.4529,2.4557,2.4571,2.4576,2.4596,2.4607,2.4603,2.4598,2.4596,2.4555,2.456,2.4532,2.4522,2.4513,2.4506,2.4484,2.4472,2.4606,2.4606,2.4606,0,0,2.4445,2.4468,2.446,2.4472,2.4485,2.4475,2.4534,2.4521,2.4514,2.4573,2.4552,2.4568,2.4583,2.4549,2.4536,2.4559,2.4471,2.4506,2.4499,2.4497,2.4477,2.4465,2.4453,2.4602,2.4603,2.4603,0,0,2.436,2.4377,2.4352,2.4365,2.4384,2.441,2.4404,2.4433,2.4446,2.4426,2.447,2.4462,2.4454,2.4462,2.4465,2.4385,2.4417,2.4384,2.4327,2.4305,2.4294,2.4285,2.4255,2.4244,2.4378,2.4377,2.4377,0,2.4302,2.4291,2.4335,2.4319,2.4323,2.4379,2.4353,2.4362,2.4379,2.4379,2.4406,2.4397,2.4411,2.4381,2.4361,2.4363,2.4356,2.438,2.4293,2.4284,2.4276,2.4247,2.4236,2.4373,2.4374,2.4374,2.4374,0,2.4218,2.421,2.4187,2.4204,2.4205,2.4185,2.4224,2.422,2.4248,2.427,2.4249,2.4268,2.4271,2.4266,2.4292,2.4239,2.4252,2.4285,2.4331,2.4258,2.4232,2.4221,2.4367,2.4368,2.437,2.4371,0,0,2.4081,2.4125,2.4115,2.4124,2.4151,2.4144,2.4126,2.4131,2.4125,2.4136,2.412,2.4113,2.4144,2.4148,2.4176,2.4157,2.409,2.4192,2.4193,2.4171,2.403,2.4004,2.399,2.4113,2.4111,2.411,2.4028,0,2.4,2.3973,2.4012,2.3975,2.3967,2.4021,2.4005,2.4019,2.404,2.4035,2.4058,2.4051,2.4094,2.4096,2.408,2.4102,2.4062,2.4109,2.4097,2.4096,2.4088,2.3977,2.3949,2.3871,2.4019,2.4017,2.4016,0,2.3901,2.3909,2.3871,2.3901,2.3899,2.3884,2.3891,2.3887,2.3904,2.392,2.3925,2.396,2.3943,2.3989,2.3965,2.3995,2.3993,2.4003,2.4001,2.3999,2.4049,2.3969,2.3847,2.3834,2.4,2.4002,2.4003,0,2.3802,2.3803,2.3781,2.3787,2.3822,2.381,2.3823,2.3842,2.3843,2.3849,2.3849,2.3853,2.3854,2.3855,2.3889,2.392,2.386,2.391,2.3871,2.387,2.3853,2.3853,2.3726,2.3856,2.3856,2.3857,2.3857,0,2.3706,2.368,2.3737,2.3723,2.3696,2.3742,2.3713,2.3732,2.3749,2.3738,2.3785,2.3774,2.3821,2.3814,2.3841,2.3815,2.3816,2.3827,2.3834,2.3822,2.382,2.3819,2.3824,2.3854,2.3854,2.3855,2.3855,0,2.3589,2.3627,2.3606,2.3642,2.365,2.3628,2.3658,2.3645,2.3671,2.3656,2.3655,2.3694,2.3689,2.3724,2.3724,2.3742,2.3703,2.372,2.3697,2.3702,2.3661,2.3663,2.3526,2.351,2.3652,2.3651,2.365,0,2.3524,2.3506,2.354,2.3538,2.3549,2.3544,2.3546,2.359,2.3589,2.3608,2.3592,2.3592,2.3593,2.3581,2.3608,2.3609,2.3625,2.3577,2.3625,2.3613,2.3621,2.3621,2.3619,2.3566,2.3564,2.3562,2.3561,0,2.3403,2.3424,2.3425,2.3432,2.3433,2.344,2.3451,2.3445,2.3494,2.349,2.3486,2.3487,2.3489,2.3487,2.3493,2.3505,2.354,2.3547,2.3537,2.3523,2.351,2.3514,2.3667,2.3549,2.355,2.3551,2.3552,2.3552,2.3309,2.3296,2.3318,2.3317,2.3331,2.334,2.333,2.3355,2.3353,2.3359,2.3386,2.3376,2.3394,2.3406,2.3415,2.3408,2.343,2.3417,2.3414,2.3409,2.3401,2.3513,2.3409,2.341,2.341,2.341,2.3411,0,2.3189,2.3207,2.3207,2.3221,2.322,2.3257,2.327,2.3266,2.3259,2.3273,2.3274,2.3269,2.3268,2.3295,2.3297,2.3285,2.3301,2.3284,2.3284,2.3286,2.3382,2.3388,2.3271,2.3271,2.3271,2.3271,2.3271,2.3271,2.3127,2.3105,2.3128,2.3113,2.3131,2.3124,2.3129,2.3137,2.3148,2.3142,2.3141,2.316,2.3179,2.3183,2.3182,2.3191,2.3188,2.3164,2.3177,2.3266,2.3279,2.3292,2.3298,2.3164,2.3164,2.3082,2.3081,2.308]}]]